Location: Observatory
(52.1446°N, 0.4624°W)
Time: 05:02:14
(UTC+01:00)

ISS - Pass Details

Date: 22 July 2021
Orbit: 419 x 421 km, 51.6° (Epoch: 03 August)

Event Time Altitude Azimuth Distance (km) Brightness Sun altitude
Rises 22:49:13 0° 277° (W) 2,373 0.7 -11.7°
Reaches altitude 10° 22:51:20 10° 275° (W) 1,508 -0.4 -11.8°
Maximum altitude 22:54:42 74° 190° (S) 443 -3.8 -12.1°
Enters shadow 22:57:28 14° 107° (ESE) 1,261 -1.8 -12.3°
